Preview of NWS' New Version of Forecast
This preview is not operational and should not be used for support decisions.

Regional Weather Roundup (RWR)

Issued by Philadelphia/Mt Holly (PHI)

                            
000
ASUS41 KPHI 212212
RWRPHI

REGIONAL WEATHER ROUNDUP
NATIONAL WEATHER SERVICE MOUNT HOLLY NJ
600 PM EDT THU MAR 21 2019

NOTE:  "FAIR" INDICATES FEW OR NO CLOUDS BELOW 12,000 FEET WITH NO
SIGNIFICANT WEATHER AND/OR OBSTRUCTIONS TO VISIBILITY.

 * = STATION DOES NOT REPORT PRECIPITATION (E.G. RAIN, SNOW, ETC.) 
        OR FOG.

NJZ015>026-212300-
SOUTHERN NEW JERSEY
  
CITY           SKY/WX    TMP DP  RH WIND       PRES   REMARKS
POMONA         CLOUDY    49  48  97 E22G35    29.70F                  
WILDWOOD*      LGT RAIN  49  47  93 E20G26    29.64F FOG              
MILLVILLE      LGT RAIN  50  48  93 E20       29.66F FOG              
WRIGHTSTOWN    CLOUDY    48  46  92 E15G22    29.72F                  
MOUNT HOLLY    LGT RAIN  50  46  86 E12G22    29.74S                  
TRENTON        LGT RAIN  46  45  96 E17       29.75F FOG              

$$
NJZ001>014-212300-
NORTHERN NEW JERSEY
  
CITY           SKY/WX    TMP DP  RH WIND       PRES   REMARKS
SUSSEX         LGT RAIN  45  41  86 NE10      29.84F                  
ANDOVER*         N/A     44  40  85 NE8       29.82F                  
MORRISTOWN     RAIN      45  45 100 E12       29.84F                  
NEWARK         RAIN      47  44  90 NE9       29.85F FOG              
TETERBORO      LGT RAIN  44  40  85 E10G16    29.86F                  
CALDWELL       LGT RAIN  44  43  96 E13       29.85F FOG              
SOMERVILLE     LGT RAIN  47  44  90 E7        29.79F                  
ALLAIRE*       LGT RAIN  45  43  93 E18G25    29.79F                  
TOMS RIVER*    CLOUDY    48  47  96 E12G22    29.76F                  

$$
PAZ043-044-047-054-055-060>062-066>071-212300-
EASTERN PENNSYLVANIA
  
CITY           SKY/WX    TMP DP  RH WIND       PRES   REMARKS
PHILADELPHIA   CLOUDY    51  47  86 E14       29.72F                  
NORTH PHILA    CLOUDY    51  46  83 E15       29.75F                  
DOYLESTOWN     LGT RAIN  46  44  93 MISG      29.74F                  
PERKASIE*      LGT RAIN  46  46 100 E9        29.76F                  
POTTSTOWN      LGT RAIN  47  47 100 NE8       29.73F FOG              
LANCASTER      LGT RAIN  50  47  89 NE15      29.69F FOG              
READING        LGT RAIN  48  48 100 NE8G18    29.71F FOG              
ALLENTOWN      RAIN      48  43  82 E13       29.78F                  
MOUNT POCONO   RAIN      38  38 100 E10G17    29.77F FOG     WCI  31  
HAZLETON       RAIN      43  41  93 E3        29.78F                  
LEHIGHTON      RAIN      45  45 100 NE7       29.78F                  
WILKES BARRE   LGT RAIN  44  41  89 NE6       29.80F                  

$$
DEZALL-MDZ008-012-015-019-020-212300-
DELAWARE AND EASTERN MARYLAND
  
CITY           SKY/WX    TMP DP  RH WIND       PRES   REMARKS
WILMINGTON     LGT RAIN  51  48  89 E14       29.69F                  
DOVER          LGT RAIN  49  49  99 E23       29.61F                  
GEORGETOWN     LGT RAIN  54  50  86 E15G28    29.61F                  
ABERDEEN       LGT RAIN  50  48  93 NE14G26   29.66  FOG              
PATUXENT       LGT RAIN  53  53 100 SE16G25   29.54  FOG              
OCEAN CITY     CLOUDY    50  48  93 SE24G30   29.58F                  
WALLOPS ISLAND HVY RAIN  52  50  93 SE13      29.57F FOG              
SALISBURY      LGT RAIN  54  53  97 E21G29    29.55F                  

$$
PAZ001-021-NYZ056-072-MDZ011-DCZ001-212300-
OTHER NEARBY LOCATIONS
  
CITY           SKY/WX    TMP DP  RH WIND       PRES   REMARKS
STATE COLLEGE  RAIN      39  37  93 CALM      29.79S                  
WILLIAMSPORT   LGT RAIN  44  42  93 CALM      29.79F                  
BINGHAMTON     LGT RAIN  36  35  96 SE9       29.82F WCI  29          
NEW YORK CITY  RAIN      42  39  89 NE14G21   29.88F FOG              
BALTIMORE      LGT RAIN  51  49  92 NE18      29.59F FOG              
WASHINGTON DC  HVY RAIN  46  42  86 NW22G31   29.63S FOG              

$$